This is the latest recevied weather packets stored in our database for station/object CA2RRL-10. If no packets are shown the sender has not sent any weather packets the latest 10 day(s).
| Time | Temp. | Humidity | Pressure | Rain* | Wind** | Luminosity | Snow |
|---|---|---|---|---|---|---|---|
| 1777785505 | 12.22° C | 42% | 1031.7 hPa | - | - | - | - |
| 1777784605 | 12.78° C | 42% | 1031.7 hPa | - | - | - | - |
| 1777783705 | 12.78° C | 41% | 1031.5 hPa | - | - | - | - |
| 1777782805 | 13.33° C | 40% | 1031.4 hPa | - | - | - | - |
| 1777781905 | 13.33° C | 39% | 1031.4 hPa | - | - | - | - |
| 1777781005 | 13.89° C | 38% | 1031.4 hPa | - | - | - | - |
| 1777780105 | 13.89° C | 38% | 1031.4 hPa | - | - | - | - |
| 1777779205 | 14.44° C | 37% | 1031.4 hPa | - | - | - | - |
| 1777778305 | 14.44° C | 37% | 1031.1 hPa | - | - | - | - |
| 1777777405 | 15° C | 37% | 1031.1 hPa | - | - | - | - |
| 1777776505 | 15° C | 37% | 1031 hPa | - | - | - | - |
| 1777775605 | 15.56° C | 36% | 1030.9 hPa | - | - | - | - |
| 1777774705 | 15.56° C | 36% | 1030.9 hPa | - | - | - | - |
| 1777773804 | 16.67° C | 34% | 1030.7 hPa | - | - | - | - |
| 1777772904 | 16.67° C | 34% | 1030.9 hPa | - | - | - | - |
| 1777772004 | 17.22° C | 33% | 1031 hPa | - | - | - | - |
| 1777771104 | 17.78° C | 32% | 1031.2 hPa | - | - | - | - |
| 1777770204 | 17.78° C | 32% | 1031 hPa | - | - | - | - |
| 1777769304 | 18.33° C | 31% | 1031.1 hPa | - | - | - | - |
| 1777768404 | 18.89° C | 30% | 1031.1 hPa | - | - | - | - |
| 1777767504 | 19.44° C | 29% | 1031 hPa | - | - | - | - |
| 1777766604 | 20° C | 28% | 1030.9 hPa | - | - | - | - |
| 1777765704 | 20.56° C | 27% | 1030.6 hPa | - | - | - | - |
| 1777764803 | 21.11° C | 26% | 1030.5 hPa | - | - | - | - |
| 1777763903 | 21.67° C | 25% | 1030.3 hPa | - | - | - | - |
* Rain since midnight (hover to see other rain measurements)
** Current wind speed in m/s (hover to see current wind gust speed)